Location: Earls Croome
(52.0667°N, 2.2000°W)
Time: 01:03:10
(UTC+00:00)

COSMOS 2455 - Pass Details

Date: 22 February 2020
Orbit: 901 x 908 km, 67.2° (Epoch: 28 March)

Event Time Altitude Azimuth Distance (km) Brightness Sun altitude
Exits shadow 01:42:43 16° 20° (NNE) 2,192 5.3 -45.3°
Drops below altitude 10° 01:44:24 10° 33° (NNE) 2,601 5.8 -45.2°
Sets 01:47:31 0° 48° (NE) 3,545 6.6 -44.9°
